{"data":{"norad_id":64705,"intl_designator":"2025-142K","name":"STARLINK-34406","alt_names":[],"object_type":"PAYLOAD","status":"ACTIVE","operator":null,"country":"US","launch_date":"2025-06-28","launch_site_code":"AFWTR","launch_vehicle":null,"mission":null,"orbit_class":"UNKNOWN","rcs_meters":null,"size_class":null,"mass_kg":null,"dimensions":null,"purposes":["comms"],"wikipedia_slug":null,"has_3d_model":false,"image_url":null,"decayed_at":null,"tle_current":{"epoch":"2026-05-25T05:30:25.703424Z","epoch_age_seconds":69370,"freshness":"FRESH","line1":"1 64705U 25142K   26145.22946416  .00002317  00000+0  20191-3 0  9996","line2":"2 64705  70.0002 121.5569 0004065 264.4828  95.5867 14.98335934 51062","mean_motion":14.98335934,"eccentricity":0.0004065,"inclination_deg":70.0002,"raan_deg":121.5569,"arg_perigee_deg":264.4828,"mean_anomaly_deg":95.5867,"bstar":0.00020191,"rev_number":5106,"period_min":96.106618504152,"perigee_km":569.21229464872,"apogee_km":574.86278655023,"semimajor_km":6950.1745405995,"source":"CELESTRAK","updated_at":"2026-05-25T13:38:20.512966Z"}}}